Regional Weather Roundup
Issued by NWS

Home | Current Version | Previous Version | Graphics & Text | Print | Product List | Glossary Off
Versions: 1 2 3 4 5 6 7 8 9 10 11 12 13 14 15 16 17 18 19 20 21 22 23 24 25 26 27 28 29 30 31 32 33 34 35 36 37 38 39 40 41 42 43 44 45 46 47 48 49 50

000
ASUS43 KMKX 251500
RWRWI

WISCONSIN REGIONAL WEATHER ROUNDUP
NATIONAL WEATHER SERVICE MILWAUKEE/SULLIVAN WI
1000 AM CDT SUN JUN 25 2017

NOTE: "FAIR" INDICATES FEW OR NO CLOUDS BELOW 12,000 FEET WITH NO
SIGNIFICANT WEATHER AND/OR OBSTRUCTIONS TO VISIBILITY.

WIZ001-002-006>008-014>016-023>028-251600-
NORTHWEST WISCONSIN

CITY           SKY/WX    TMP DP  RH WIND       PRES   REMARKS
SUPERIOR ARPT  NOT AVBL
ASHLAND        LGT RAIN  56  54  93 CALM      30.04S
HAYWARD        CLOUDY    58  51  78 CALM      30.05S
SIREN          CLOUDY    57  52  82 W12       30.07F
CUMBERLAND     CLOUDY    55  50  82 W10       30.08S
RICE LAKE      CLOUDY    56  51  83 W10       30.09S
CHETEK         CLOUDY    56  51  85 W8        30.08S
LADYSMITH      CLOUDY    56  52  84 W9        30.08S
EAU CLAIRE     NOT AVBL
MENOMONIE      CLOUDY    58  50  74 W10       30.10S
NEW RICHMOND   CLOUDY    57  48  73 W12       30.11S
OSCEOLA        CLOUDY    56  50  79 W14G20    30.13S
$$

WIZ003>005-009-010-017-018-251600-
NORTH CENTRAL WISCONSIN

CITY           SKY/WX    TMP DP  RH WIND       PRES   REMARKS
MANITOWISH WTR CLOUDY    56  53  92 W6        30.02S
ARBOR VITAE    PTSUNNY   57  52  85 W6        30.02S
WOODRUFF       PTSUNNY   57  52  85 W6        30.02S
RHINELANDER    CLOUDY    57  52  83 W10       30.03S
EAGLE RIVER    PTSUNNY   59  51  74 W5        30.02S
LAND O LAKES   CLOUDY    56  50  79 NW6       30.04S
PHILLIPS       CLOUDY    54  52  93 W5        30.04S
TOMAHAWK       NOT AVBL
MEDFORD        CLOUDY    53  50  89 W9        30.06R
MERRILL        CLOUDY    56  51  84 W8        30.05S
$$

WIZ029-030-035-036-043>047-251600-
CENTRAL WISCONSIN

CITY           SKY/WX    TMP DP  RH WIND       PRES   REMARKS
WAUSAU         CLOUDY    56  49  77 NW13      30.04R
MOSINEE        CLOUDY    55  52  88 W9        30.07R
MARSHFIELD     CLOUDY    54  49  83 W13       30.07R
STEVENS POINT  PTSUNNY   56  49  77 W12       30.06S
WAUPACA        MOSUNNY   64  54  69 W7        30.04S
WAUTOMA        CLOUDY    60  50  69 W16       30.07S
WISC RAPIDS    CLOUDY    56  50  80 W9        30.09R
CAMP DOUGLAS   NOT AVBL
$$

WIZ011>013-019>022-031-037>040-048>050-251600-
NORTHEAST WISCONSIN

CITY           SKY/WX    TMP DP  RH WIND       PRES   REMARKS
ANTIGO         CLOUDY    58  53  83 W12G17    30.03S
SHAWANO        CLOUDY    62  53  70 W6        30.01S
OCONTO         CLOUDY    60  51  73 NW6       30.00R
STURGEON BAY     N/A     58  51  78 NW9         N/A
GREEN BAY      PTSUNNY   63  53  70 NW13      30.01S
MANITOWOC      NOT AVBL
APPLETON       PTSUNNY   57  48  72 NW9       30.02R
CLINTONVILLE   CLOUDY    59  50  72 NW9       30.03R
OSHKOSH        SUNNY     63  52  67 W12G18    30.03S
$$

WIZ032>034-041-042-053>061-251600-
SOUTHWEST WISCONSIN

CITY           SKY/WX    TMP DP  RH WIND       PRES   REMARKS
LA CROSSE      CLOUDY    63  52  67 W10       30.12R
SPARTA         CLOUDY    56  51  85 W6        30.11S
VIROQUA        CLOUDY    55  52  88 W9        30.13R
BOSCOBEL       PTSUNNY   62  49  62 W10       30.13S
PRAIRIE DU CHI PTSUNNY   60  48  63 W10G16    30.14S
PLATTEVILLE    PTSUNNY   60  54  79 W15       30.15R
$$

WIZ056-057-062-063-064-067-068-251600-
SOUTH CENTRAL WISCONSIN

CITY           SKY/WX    TMP DP  RH WIND       PRES   REMARKS
REEDSBURG      CLOUDY    57  50  78 W10G17    30.10S
BARABOO/DELLS  CLOUDY    57  49  72 W10       30.10R
LONE ROCK      CLOUDY    61  49  64 NW15      30.12R
MINERAL POINT  PTSUNNY   61  54  77 W10       30.13R
MADISON        PTSUNNY   60  52  74 W9        30.09S
MIDDLETON      PTSUNNY   61  53  75 W14       30.11R
WATERTOWN      MOSUNNY   61  53  75 W10G18    30.08R
MONROE         MOSUNNY   59  50  72 NW14      30.12S
JANESVILLE     MOSUNNY   64  50  59 NW14G20   30.10S
$$

WIZ051-052-058>065-066-070>072-251600-
SOUTHEAST WISCONSIN

CITY           SKY/WX    TMP DP  RH WIND       PRES   REMARKS
MILWAUKEE      MOSUNNY   65  49  56 W15G21    30.06S
WAUKESHA       MOSUNNY   61  48  63 W13       30.08S
MILWAUKEE/TIMM MOSUNNY   64  46  52 W14G22    30.06S
RACINE         SUNNY     65  49  56 W9G20     30.08S
KENOSHA        SUNNY     65  52  62 W13       30.08S
FOND DU LAC    SUNNY     64  49  57 W16       30.04S
SHEBOYGAN      SUNNY     64  54  69 W15       30.01S
WEST BEND      MOSUNNY   61  50  67 W9G18     30.04S
JUNEAU         MOSUNNY   60  51  73 W13       30.08R
$$

LSZ147-162-251600-
LAKE SUPERIOR

STATION/POSITION TIME  TEMP    WIND        PRES    WAVE
                       AIR SEA DIR/SP/G            HT/PER
                 (UTC) (F)     (DEG/KT/KT) (MB)    (FT/S)
W MID LAKE BUOY  1350   45 39  290/  4/  4 1016.4R   0
DEVILS ISLAND    1400   52     250/  8/  9 1016.8R
SAXON HARBOR     1440   57     250/  1/  4 1016.6R
$$

LMZ867-665-643>646-251600-
LAKE MICHIGAN

STATION/POSITION TIME  TEMP    WIND        PRES    WAVE
                       AIR SEA DIR/SP/G            HT/PER
                 (UTC) (F)     (DEG/KT/KT) (MB)    (FT/S)
CHAMBERS ISLAND  1440   60     250/  5/  7 1014.9R
S GREEN BAY BUOY 1430   59     320/ 10/ 12 1015.7R
N MID LAKE BUOY  1350   55 57  350/ 10/ 10 1014.7R   1/ 4
NORTHPORT PIER   1440   59     310/  9/ 13 1014.9R
KEWAUNEE LAKESHO 1430   59     320/  9/ 15 1015.1R
SHEBOYGAN LAKESH 1400   60     290/ 15/ 18 1015.9R
PORT WASHINGTON  1440   65     310/  8/ 17 1017.6S
ATWATER BUOY     1309   59 58  260/ 12/ 16 1017.4
MILWAUKEE LAKESH 1430   62     280/ 15/ 19   N/A
S MID LAKE BUOY  1350   58 61  300/ 17/ 19 1017.6R   4/ 5
KENOSHA   LAKESH 1400   61     270/ 13/ 18 1018.3
$$

TC  - TEMPERATURE IN CELSIUS
VSB - VISIBILITY IN STATUTE MILES
WCI - WIND CHILL INDEX
HX  - HEAT INDEX





USA.gov is the U.S. government's official web portal to all federal, state and local government web resources and services.